HB9CJD-1 Weather Reports


time (UTC)temp
C
wind
direction
speed
KPH
gust
KPH
rain 1hr
cm
rain 24hr
cm
rain mn
cm
humidity
%
barometer
mb
20260506022602 11 0 0.0 0.0 0.00 0.00 0.00 83 1011.3
20260506021559 11 0 0.0 0.0 0.00 0.00 0.00 83 1011.4
20260506021049 11 0 0.0 0.0 0.00 0.00 0.00 83 1011.4
20260506020555 11 0 0.0 0.0 0.00 0.00 0.00 83 1011.4
20260506015552 12 0 0.0 0.0 0.00 0.00 0.00 82 1011.5
20260506014549 12 0 0.0 0.0 0.00 0.00 0.00 78 1011.6
20260506013546 12 0 0.0 0.0 0.00 0.00 0.00 83 1011.6
20260506012542 12 0 0.0 0.0 0.00 0.00 0.00 82 1011.8
20260506011539 12 0 0.0 0.0 0.00 0.00 0.00 82 1011.8
20260506010536 12 0 0.0 0.0 0.00 0.00 0.00 80 1011.8
20260506005533 12 0 0.0 0.0 0.00 0.00 0.00 79 1011.9
20260506004529 12 0 0.0 0.0 0.00 0.00 0.00 82 1011.8
20260506003526 12 0 0.0 0.0 0.00 0.00 0.00 82 1012.1
20260506002523 12 0 0.0 0.0 0.00 0.00 0.00 79 1012.0
20260506001520 12 0 0.0 0.0 0.00 0.00 0.00 80 1012.3
20260506000516 12 0 0.0 0.0 0.00 0.00 0.00 79 1012.4
20260505235513 12 0 0.0 0.0 0.00 0.00 0.00 75 1012.3
20260505234510 12 0 0.0 0.0 0.00 0.00 0.00 76 1012.3
20260505233507 12 0 0.0 0.0 0.00 0.00 0.00 76 1012.4
20260505232503 12 0 0.0 0.0 0.00 0.00 0.00 76 1012.5
20260505231500 12 0 0.0 0.0 0.00 0.00 0.00 76 1012.6
20260505230457 12 0 0.0 0.0 0.00 0.00 0.00 77 1012.6
20260505225454 12 0 0.0 0.0 0.00 0.00 0.00 78 1012.6
20260505224450 12 0 0.0 0.0 0.00 0.00 0.00 78 1012.7
20260505223448 12 0 0.0 0.0 0.00 0.00 0.00 78 1012.5
20260505222444 12 0 0.0 0.0 0.00 0.00 0.00 75 1012.6
20260505221441 13 0 0.0 0.0 0.00 0.00 0.00 75 1012.5
20260505220437 13 0 0.0 0.0 0.00 0.00 0.00 74 1012.7
20260505215434 13 0 0.0 0.0 0.00 0.00 0.00 77 1012.9
20260505214431 13 0 0.0 0.0 0.00 0.00 0.00 77 1012.9
20260505213428 13 0 0.0 0.0 0.00 0.00 0.00 75 1013.0
20260505212424 13 0 0.0 0.0 0.00 0.00 0.00 74 1013.0
20260505211421 13 0 0.0 0.0 0.00 0.00 0.00 74 1013.1
20260505210418 13 0 0.0 0.0 0.00 0.00 0.00 73 1013.1
20260505205415 13 0 0.0 0.0 0.00 0.00 0.00 73 1013.1
20260505204411 13 0 0.0 0.0 0.00 0.00 0.00 72 1013.1
20260505203408 13 0 0.0 0.0 0.00 0.00 0.00 72 1013.1
20260505202405 13 0 0.0 0.0 0.00 0.00 0.00 71 1013.0
20260505201402 13 0 0.0 0.0 0.00 0.00 0.00 72 1013.0
20260505200358 13 0 0.0 0.0 0.00 0.00 0.00 71 1012.9
20260505195355 13 0 0.0 0.0 0.00 0.00 0.00 71 1012.8
20260505194352 13 0 0.0 0.0 0.00 0.00 0.00 72 1012.7
20260505193349 13 0 0.0 0.0 0.00 0.00 0.00 73 1012.6
20260505192345 13 0 0.0 0.0 0.00 0.00 0.00 72 1012.5
20260505191342 13 0 0.0 0.0 0.00 0.00 0.00 73 1012.5
20260505190339 13 0 0.0 0.0 0.00 0.00 0.00 74 1012.4
20260505185336 14 0 0.0 0.0 0.00 0.00 0.00 75 1012.4
20260505184332 14 0 0.0 0.0 0.00 0.00 0.00 76 1012.2
20260505183329 15 0 0.0 0.0 0.00 0.00 0.00 76 1012.3
20260505182326 14 0 0.0 0.0 0.00 0.00 0.00 78 1012.4
20260505181323 14 0 0.0 0.0 0.00 0.00 0.00 79 1012.3
20260505180319 14 0 0.0 0.0 0.00 0.00 0.00 77 1012.4
20260505175316 14 0 0.0 0.0 0.00 0.00 0.00 75 1012.4
20260505174313 14 0 0.0 0.0 0.00 0.00 0.00 77 1012.5
20260505173310 13 0 0.0 0.0 0.00 0.00 0.00 78 1012.5
20260505172306 13 0 0.0 0.0 0.00 0.00 0.00 75 1012.3
20260505171303 13 0 0.0 0.0 0.00 0.00 0.00 80 1012.3
20260505170300 14 0 0.0 0.0 0.00 0.00 0.00 75 1012.2
20260505165257 14 0 0.0 0.0 0.00 0.00 0.00 74 1012.2
20260505164253 13 0 0.0 0.0 0.00 0.00 0.00 75 1012.5
20260505163250 13 0 0.0 0.0 0.00 0.00 0.00 72 1012.5
20260505162248 14 0 0.0 0.0 0.00 0.00 0.00 68 1012.5
20260505161244 15 0 0.0 0.0 0.00 0.00 0.00 67 1012.2
20260505160240 15 0 0.0 0.0 0.00 0.00 0.00 68 1012.1
20260505153231 16 0 0.0 0.0 0.00 0.00 0.00 61 1011.6
20260505152228 17 0 0.0 0.0 0.00 0.00 0.00 57 1011.4
20260505151224 18 0 0.0 0.0 0.00 0.00 0.00 55 1011.4
20260505150221 18 0 0.0 0.0 0.00 0.00 0.00 54 1011.4
20260505140201 18 0 0.0 0.0 0.00 0.00 0.00 56 1011.2
20260505130142 18 0 0.0 0.0 0.00 0.00 0.00 64 1011.5
20260505124135 17 0 0.0 0.0 0.00 0.00 0.00 65 1011.5
20260505123132 17 0 0.0 0.0 0.00 0.00 0.00 66 1011.6
20260505122129 16 0 0.0 0.0 0.00 0.00 0.00 70 1011.7
20260505121126 16 0 0.0 0.0 0.00 0.00 0.00 68 1011.7
20260505120122 16 0 0.0 0.0 0.00 0.00 0.00 68 1011.8
20260505115119 16 0 0.0 0.0 0.00 0.00 0.00 74 1011.8
20260505114116 16 0 0.0 0.0 0.00 0.00 0.00 74 1011.8
20260505113113 15 0 0.0 0.0 0.00 0.00 0.00 81 1011.8
20260505112109 14 0 0.0 0.0 0.00 0.00 0.00 83 1012.0
20260505111106 13 0 0.0 0.0 0.00 0.00 0.00 85 1011.9
20260505102050 13 0 0.0 0.0 0.00 0.00 0.00 82 1012.1
20260505101047 13 0 0.0 0.0 0.00 0.00 0.00 86 1012.1
20260505100043 12 0 0.0 0.0 0.00 0.00 0.00 87 1012.1
20260505095040 12 0 0.0 0.0 0.00 0.00 0.00 86 1012.2
20260505094037 13 0 0.0 0.0 0.00 0.00 0.00 86 1012.2
20260505093034 12 0 0.0 0.0 0.00 0.00 0.00 87 1012.1
20260505092030 12 0 0.0 0.0 0.00 0.00 0.00 83 1012.2
20260505091028 12 0 0.0 0.0 0.00 0.00 0.00 87 1012.1
20260505090024 12 0 0.0 0.0 0.00 0.00 0.00 85 1012.1
20260505085021 12 0 0.0 0.0 0.00 0.00 0.00 87 1012.2
20260505084017 11 0 0.0 0.0 0.00 0.00 0.00 88 1012.3
20260505083014 12 0 0.0 0.0 0.00 0.00 0.00 86 1012.4
20260505082011 11 0 0.0 0.0 0.00 0.00 0.00 85 1012.3
20260505081008 11 0 0.0 0.0 0.00 0.00 0.00 85 1012.5
20260505080004 11 0 0.0 0.0 0.00 0.00 0.00 84 1012.4
20260505075001 12 0 0.0 0.0 0.00 0.00 0.00 81 1012.6
20260505073958 12 0 0.0 0.0 0.00 0.00 0.00 81 1012.7
20260505072955 12 0 0.0 0.0 0.00 0.00 0.00 78 1012.8
20260505071951 12 0 0.0 0.0 0.00 0.00 0.00 78 1013.0
20260505070948 12 0 0.0 0.0 0.00 0.00 0.00 80 1012.9
20260505065945 12 0 0.0 0.0 0.00 0.00 0.00 79 1013.0
20260505064942 11 0 0.0 0.0 0.00 0.00 0.00 82 1013.1
20260505063938 11 0 0.0 0.0 0.00 0.00 0.00 82 1013.0
20260505062935 11 0 0.0 0.0 0.00 0.00 0.00 83 1013.0
20260505061932 11 0 0.0 0.0 0.00 0.00 0.00 83 1013.0
20260505060929 11 0 0.0 0.0 0.00 0.00 0.00 83 1012.9
20260505055925 11 0 0.0 0.0 0.00 0.00 0.00 84 1013.0
20260505054922 11 0 0.0 0.0 0.00 0.00 0.00 81 1012.9
20260505053919 11 0 0.0 0.0 0.00 0.00 0.00 82 1012.9
20260505052916 11 0 0.0 0.0 0.00 0.00 0.00 79 1012.8
20260505051912 11 0 0.0 0.0 0.00 0.00 0.00 80 1012.8
20260505050909 11 0 0.0 0.0 0.00 0.00 0.00 82 1012.7
20260505040850 11 0 0.0 0.0 0.00 0.00 0.00 77 1012.8
20260505035846 11 0 0.0 0.0 0.00 0.00 0.00 78 1012.9
20260505034843 11 0 0.0 0.0 0.00 0.00 0.00 80 1012.9
20260505033840 11 0 0.0 0.0 0.00 0.00 0.00 76 1013.0
20260505032837 11 0 0.0 0.0 0.00 0.00 0.00 77 1012.9
20260505031833 11 0 0.0 0.0 0.00 0.00 0.00 79 1013.2
20260505030830 11 0 0.0 0.0 0.00 0.00 0.00 78 1013.3
20260505025827 11 0 0.0 0.0 0.00 0.00 0.00 76 1013.3
20260505024824 11 0 0.0 0.0 0.00 0.00 0.00 76 1013.3
20260505023820 11 0 0.0 0.0 0.00 0.00 0.00 77 1013.5